EW4711 Weather Reports


Display with metric or nautical units.
time (UTC)temp
F
wind
direction
speed
MPH
gust
MPH
rain 1hr
in
rain 24hr
in
rain mn
in
humidity
%
barometer
mb
20260508092103 41 301 1.0 3.0 0.00 0.11 0.00 96 1010.7
20260508091603 41 300 2.0 3.0 0.00 0.11 0.00 96 1010.8
20260508091103 41 317 2.0 3.0 0.00 0.11 0.00 96 1010.7
20260508090603 41 280 1.0 2.0 0.00 0.11 0.00 96 1010.7
20260508085603 41 261 2.0 7.0 0.00 0.11 0.00 96 1010.6
20260508085103 41 268 2.0 3.0 0.00 0.11 0.00 96 1010.8
20260508084603 41 267 2.0 3.0 0.00 0.11 0.00 97 1010.8
20260508084103 41 262 3.0 6.0 0.00 0.11 0.00 97 1010.8
20260508082603 41 276 2.0 3.0 0.00 0.11 0.00 97 1010.9
20260508082103 40 273 1.0 3.0 0.00 0.11 0.00 97 1010.9
20260508080603 40 278 0.0 2.0 0.00 0.11 0.00 96 1010.9
20260508075603 40 245 0.0 1.0 0.00 0.11 0.00 96 1010.8
20260508075103 40 245 0.0 1.0 0.00 0.11 0.00 96 1010.8
20260508074603 39 245 0.0 2.0 0.00 0.11 0.00 96 1010.8
20260508074103 39 245 0.0 3.0 0.00 0.11 0.00 96 1010.8
20260508073603 39 253 1.0 2.0 0.00 0.11 0.00 96 1010.8
20260508073103 39 253 0.0 0.0 0.00 0.11 0.00 96 1010.8
20260508072603 39 253 0.0 0.0 0.00 0.11 0.00 96 1010.9
20260508072103 39 253 0.0 0.0 0.00 0.11 0.00 96 1010.9
20260508071603 39 253 0.0 0.0 0.00 0.11 0.00 96 1010.9
20260508071103 39 253 0.0 0.0 0.00 0.11 0.00 96 1010.9
20260508070603 39 253 0.0 1.0 0.00 0.11 0.00 96 1011.0
20260508065603 39 253 1.0 1.0 0.00 0.11 0.00 96 1011.1
20260508065103 39 253 0.0 2.0 0.00 0.11 0.00 96 1011.1
20260508064603 39 253 1.0 2.0 0.00 0.11 0.00 96 1011.0
20260508064103 39 253 0.0 2.0 0.00 0.11 0.00 96 1011.0
20260508063603 39 253 1.0 2.0 0.00 0.11 0.00 96 1011.1
20260508063103 38 254 1.0 3.0 0.00 0.11 0.00 96 1011.1
20260508062603 38 265 0.0 1.0 0.00 0.11 0.00 96 1011.1
20260508062103 38 265 1.0 2.0 0.00 0.11 0.00 96 1011.2
20260508061603 38 265 0.0 1.0 0.00 0.11 0.00 95 1011.2
20260508060103 37 272 0.0 1.0 0.00 0.11 0.00 95 1011.2
20260508055603 37 272 0.0 2.0 0.00 0.11 0.00 95 1011.1
20260508055103 38 274 1.0 2.0 0.00 0.11 0.00 95 1011.1
20260508054603 38 274 0.0 0.0 0.00 0.11 0.00 95 1011.1
20260508053604 38 274 0.0 0.0 0.00 0.11 0.00 95 1011.2
20260508053103 38 274 0.0 0.0 0.00 0.11 0.00 95 1011.3
20260508052603 38 274 0.0 0.0 0.00 0.12 0.00 95 1011.3
20260508051603 39 274 1.0 2.0 0.00 0.12 0.00 94 1011.3
20260508051103 39 275 0.0 2.0 0.00 0.12 0.00 95 1011.4
20260508050103 39 277 0.0 1.0 0.00 0.12 0.00 95 1011.6
20260508044603 39 285 1.0 2.0 0.00 0.12 0.00 94 1011.6
20260508044103 40 285 1.0 1.0 0.00 0.12 0.00 94 1011.5
20260508043605 40 285 0.0 1.0 0.00 0.12 0.00 94 1011.4
20260508043103 40 284 1.0 2.0 0.00 0.12 0.00 95 1011.4
20260508042103 41 235 0.0 2.0 0.00 0.12 0.00 94 1011.5
20260508041603 41 235 0.0 2.0 0.00 0.12 0.00 94 1011.4
20260508041103 41 235 1.0 3.0 0.00 0.12 0.00 95 1011.4
20260508040603 41 240 2.0 3.0 0.00 0.12 0.00 95 1011.4
20260508035603 41 255 1.0 3.0 0.00 0.12 0.12 94 1011.4
20260508035103 41 268 1.0 3.0 0.00 0.12 0.12 94 1011.4
20260508034104 40 262 1.0 2.0 0.00 0.12 0.12 94 1011.4
20260508033603 40 262 1.0 2.0 0.00 0.12 0.12 94 1011.3
20260508033103 40 264 1.0 3.0 0.00 0.12 0.12 94 1011.3
20260508032604 40 309 1.0 2.0 0.00 0.12 0.12 93 1011.3
20260508032103 40 311 0.0 1.0 0.00 0.12 0.12 93 1011.3
20260508031603 40 311 0.0 0.0 0.01 0.12 0.12 93 1011.2
20260508031103 40 311 0.0 0.0 0.02 0.12 0.12 93 1011.2
20260508030603 41 311 0.0 0.0 0.02 0.12 0.12 93 1011.2
20260508030103 41 311 0.0 0.0 0.03 0.12 0.12 93 1011.2
20260508024603 42 340 1.0 3.0 0.03 0.12 0.12 93 1011.3
20260508024103 42 340 1.0 3.0 0.04 0.12 0.12 93 1011.3
20260508023603 42 340 1.0 2.0 0.04 0.12 0.12 93 1011.3
20260508023103 42 340 0.0 0.0 0.04 0.12 0.12 93 1011.2
20260508022604 42 340 0.0 2.0 0.04 0.12 0.12 93 1011.1
20260508022103 42 340 1.0 3.0 0.04 0.12 0.12 93 1011.2
20260508021603 43 313 1.0 3.0 0.03 0.11 0.11 93 1011.1
20260508021103 43 306 3.0 6.0 0.02 0.10 0.10 93 1011.2
20260508020603 43 316 3.0 7.0 0.02 0.10 0.10 93 1011.4
20260508020104 43 316 4.0 10.0 0.01 0.09 0.09 93 1011.4
20260508015603 43 329 4.0 8.0 0.01 0.09 0.09 93 1011.4
20260508015104 43 336 6.0 12.0 0.01 0.09 0.09 92 1011.3
20260508014603 43 334 4.0 9.0 0.01 0.09 0.09 93 1011.2
20260508014103 43 298 3.0 7.0 0.00 0.08 0.08 93 1011.3
20260508012603 43 297 1.0 3.0 0.00 0.08 0.08 92 1011.1
20260508012103 43 290 1.0 2.0 0.01 0.08 0.08 91 1011.1
20260508011603 43 291 1.0 3.0 0.01 0.08 0.08 91 1011.0
20260508011103 42 240 0.0 1.0 0.03 0.08 0.08 90 1010.9
20260508005603 42 240 0.0 0.0 0.06 0.08 0.08 89 1010.7
20260508005103 43 240 0.0 1.0 0.07 0.08 0.08 89 1010.6
20260508004603 43 240 0.0 0.0 0.07 0.08 0.08 89 1010.6
20260508004103 43 240 0.0 0.0 0.07 0.08 0.08 88 1010.6
20260508003605 43 240 0.0 1.0 0.07 0.08 0.08 88 1010.5
20260508003104 43 240 1.0 2.0 0.07 0.08 0.08 87 1010.6
20260508002103 44 245 1.0 5.0 0.06 0.07 0.07 86 1010.6
20260508001603 44 286 2.0 9.0 0.06 0.07 0.07 85 1010.7
20260508001103 45 288 5.0 12.0 0.04 0.05 0.05 84 1010.7
20260508000104 46 300 6.0 12.0 0.02 0.03 0.03 82 1010.6
20260507235603 47 307 5.0 10.0 0.01 0.02 0.02 80 1010.5
20260507235103 48 286 4.0 10.0 0.00 0.01 0.01 78 1010.4
20260507234603 48 287 3.0 13.0 0.00 0.01 0.01 76 1010.2
20260507234103 48 273 4.0 9.0 0.00 0.01 0.01 74 1010.1
20260507232603 49 326 3.0 8.0 0.00 0.01 0.01 69 1009.9
20260507232103 49 317 5.0 8.0 0.00 0.01 0.01 68 1009.8
20260507231603 49 321 3.0 10.0 0.00 0.01 0.01 67 1009.8
20260507231104 49 341 4.0 7.0 0.00 0.01 0.01 67 1009.7
20260507230603 50 342 3.0 9.0 0.00 0.01 0.01 67 1009.7
20260507230105 50 294 5.0 10.0 0.00 0.01 0.01 67 1009.7
20260507225603 50 317 4.0 9.0 0.00 0.01 0.01 66 1009.7
20260507225103 51 288 3.0 9.0 0.00 0.01 0.01 66 1009.7
20260507224604 51 299 5.0 8.0 0.00 0.01 0.01 66 1009.7
20260507224103 51 293 4.0 8.0 0.00 0.01 0.01 65 1009.7
20260507223604 51 323 3.0 9.0 0.00 0.01 0.01 64 1009.6
20260507223103 51 309 3.0 9.0 0.00 0.01 0.01 64 1009.7
20260507222603 51 321 4.0 10.0 0.00 0.01 0.01 65 1009.7
20260507222103 51 303 3.0 8.0 0.00 0.01 0.01 65 1009.7
20260507221103 52 289 6.0 12.0 0.00 0.01 0.01 65 1009.7
20260507220604 52 259 3.0 8.0 0.00 0.01 0.01 64 1009.7
20260507215603 52 328 5.0 12.0 0.00 0.02 0.01 62 1009.7
20260507215103 52 302 5.0 12.0 0.00 0.02 0.01 65 1009.7
20260507214604 52 318 4.0 10.0 0.00 0.02 0.01 63 1009.6
20260507214104 53 271 3.0 10.0 0.00 0.03 0.01 60 1009.6
20260507213603 54 302 5.0 10.0 0.00 0.03 0.01 62 1009.7
20260507213104 54 331 5.0 12.0 0.00 0.03 0.01 62 1009.8
20260507212604 54 284 7.0 14.0 0.00 0.04 0.01 63 1009.8
20260507212103 54 254 3.0 9.0 0.00 0.04 0.01 64 1009.7
20260507211603 53 309 4.0 10.0 0.00 0.05 0.01 64 1009.7
20260507211103 53 296 2.0 13.0 0.00 0.05 0.01 63 1009.6
20260507210604 53 296 4.0 12.0 0.00 0.06 0.01 61 1009.8
20260507210103 53 268 4.0 9.0 0.00 0.06 0.01 62 1009.7
20260507205104 53 290 5.0 12.0 0.00 0.07 0.01 65 1009.7
20260507204605 51 293 3.0 5.0 0.00 0.08 0.01 70 1009.8
20260507203603 49 284 4.0 6.0 0.00 0.09 0.01 70 1009.8
20260507203104 50 313 5.0 8.0 0.00 0.09 0.01 70 1009.9
20260507202603 50 293 4.0 12.0 0.00 0.10 0.01 69 1009.9
20260507202104 50 303 6.0 12.0 0.00 0.10 0.01 68 1009.9
20260507201604 50 316 3.0 8.0 0.00 0.10 0.01 68 1010.0
20260507200604 50 284 5.0 9.0 0.00 0.10 0.01 66 1010.0
20260507200104 51 316 4.0 9.0 0.00 0.10 0.01 66 1010.1
20260507195103 51 284 4.0 9.0 0.00 0.10 0.01 63 1010.2
20260507194603 52 319 5.0 12.0 0.00 0.10 0.01 61 1010.2
20260507194103 52 317 6.0 10.0 0.00 0.10 0.01 61 1010.2
20260507193604 52 322 4.0 9.0 0.00 0.10 0.01 63 1010.2
20260507192603 52 308 5.0 8.0 0.00 0.10 0.01 64 1010.2
20260507191103 50 296 4.0 10.0 0.00 0.10 0.01 66 1010.4
20260507190603 51 290 4.0 8.0 0.00 0.10 0.01 65 1010.5
20260507185603 51 281 5.0 12.0 0.00 0.10 0.01 64 1010.5
20260507185103 51 296 5.0 14.0 0.00 0.10 0.01 64 1010.6
20260507183103 52 338 5.0 9.0 0.00 0.10 0.01 60 1010.6
20260507182104 52 326 4.0 7.0 0.00 0.10 0.01 60 1010.5
20260507181603 52 297 5.0 10.0 0.00 0.10 0.01 62 1010.6
20260507181103 52 12 2.0 3.0 0.00 0.10 0.01 60 1010.6
20260507180105 53 293 2.0 6.0 0.00 0.10 0.01 61 1010.6
20260507175604 53 315 4.0 8.0 0.00 0.10 0.01 60 1010.5
20260507175103 53 333 1.0 6.0 0.00 0.10 0.01 58 1010.5
20260507174604 53 66 3.0 7.0 0.00 0.10 0.01 60 1010.5
20260507174104 53 326 5.0 10.0 0.00 0.10 0.01 60 1010.6
20260507173604 53 11 3.0 10.0 0.00 0.10 0.01 58 1010.7
20260507173103 53 20 3.0 8.0 0.00 0.10 0.01 61 1010.7
20260507172604 53 8 3.0 10.0 0.00 0.10 0.01 61 1010.8
20260507172103 54 338 5.0 10.0 0.00 0.10 0.01 67 1010.8
20260507171604 53 307 6.0 10.0 0.00 0.10 0.01 63 1010.8
20260507171104 53 285 5.0 12.0 0.00 0.10 0.01 61 1010.8
20260507170604 54 5 3.0 8.0 0.00 0.10 0.01 63 1010.8
20260507170103 54 357 6.0 9.0 0.00 0.10 0.01 68 1010.8
20260507165603 52 4 2.0 9.0 0.00 0.10 0.01 64 1011.0
20260507165104 53 66 3.0 12.0 0.00 0.10 0.01 61 1011.0
20260507164104 54 341 4.0 12.0 0.00 0.10 0.01 67 1011.1
20260507163604 54 305 5.0 12.0 0.00 0.10 0.01 68 1011.2
20260507162604 52 17 3.0 10.0 0.00 0.10 0.01 65 1011.3
20260507162104 53 341 3.0 9.0 0.00 0.10 0.01 63 1011.3
20260507161603 54 2 4.0 9.0 0.00 0.10 0.01 67 1011.3
20260507160603 53 35 3.0 9.0 0.00 0.10 0.01 66 1011.5
20260507160103 53 338 2.0 8.0 0.00 0.10 0.01 69 1011.5
20260507155603 51 336 3.0 9.0 0.00 0.10 0.01 68 1011.6
20260507154103 53 295 3.0 8.0 0.00 0.10 0.01 67 1011.7
20260507153603 52 255 3.0 8.0 0.00 0.10 0.01 70 1011.7
20260507153103 51 353 5.0 10.0 0.00 0.10 0.01 66 1011.7
20260507152603 51 12 2.0 8.0 0.00 0.10 0.01 69 1011.7
20260507152104 52 195 2.0 5.0 0.00 0.10 0.01 66 1011.7
20260507151604 51 127 2.0 6.0 0.00 0.10 0.01 64 1011.8
20260507151103 52 324 6.0 10.0 0.00 0.10 0.01 68 1011.8
20260507150603 52 350 1.0 3.0 0.00 0.10 0.01 70 1011.8
20260507150104 52 54 2.0 5.0 0.00 0.10 0.01 67 1011.8
20260507145603 52 316 5.0 10.0 0.00 0.10 0.01 71 1011.8
20260507145103 52 274 4.0 8.0 0.00 0.10 0.01 68 1011.8
20260507144613 51 294 2.0 5.0 0.00 0.10 0.01 72 1011.8
20260507144103 51 18 3.0 9.0 0.00 0.10 0.01 68 1011.9
20260507143604 50 2 1.0 3.0 0.00 0.10 0.01 68 1011.9
20260507143104 51 278 1.0 3.0 0.00 0.10 0.01 68 1012.0
20260507142603 51 247 1.0 3.0 0.00 0.10 0.01 77 1012.0
20260507142104 50 48 1.0 3.0 0.00 0.10 0.01 70 1011.9
20260507141604 51 338 3.0 3.0 0.00 0.11 0.01 75 1012.0
20260507140604 49 226 2.0 3.0 0.00 0.11 0.01 68 1012.0
20260507140104 49 208 1.0 3.0 0.00 0.11 0.01 73 1012.0
20260507135603 49 160 1.0 3.0 0.00 0.12 0.01 73 1012.1
20260507135103 49 151 2.0 6.0 0.00 0.12 0.01 74 1012.2
20260507134603 48 203 1.0 5.0 0.00 0.12 0.01 75 1012.2
20260507134104 48 139 3.0 6.0 0.00 0.12 0.01 73 1012.3
20260507133604 47 131 1.0 3.0 0.00 0.12 0.01 70 1012.3
20260507133104 47 164 2.0 3.0 0.00 0.12 0.01 74 1012.3
20260507132604 47 173 2.0 3.0 0.00 0.12 0.01 74 1012.4
20260507132103 47 149 2.0 5.0 0.00 0.12 0.01 75 1012.3
20260507131103 46 181 1.0 3.0 0.00 0.12 0.01 76 1012.4
20260507130104 46 200 2.0 3.0 0.00 0.12 0.01 81 1012.5
20260507125604 45 176 2.0 3.0 0.00 0.12 0.01 81 1012.5
20260507125103 45 155 2.0 3.0 0.00 0.12 0.01 84 1012.5
20260507124604 44 151 2.0 3.0 0.00 0.12 0.01 89 1012.5
20260507124104 43 158 2.0 3.0 0.00 0.13 0.01 91 1012.5
20260507123603 42 147 1.0 3.0 0.00 0.13 0.01 95 1012.6
20260507123104 40 153 1.0 2.0 0.00 0.13 0.01 97 1012.6
20260507122603 39 182 1.0 2.0 0.00 0.13 0.01 97 1012.6
20260507122104 39 220 1.0 2.0 0.00 0.13 0.01 97 1012.5
20260507121604 39 235 1.0 2.0 0.00 0.13 0.01 97 1012.6
20260507121103 38 330 0.0 0.0 0.00 0.13 0.01 97 1012.6
20260507120604 38 330 0.0 0.0 0.00 0.14 0.01 97 1012.7
20260507120104 38 330 0.0 1.0 0.00 0.14 0.01 97 1012.7
20260507115604 38 353 0.0 2.0 0.00 0.14 0.01 97 1012.7
20260507115103 38 355 1.0 2.0 0.00 0.14 0.01 97 1012.7
20260507114604 38 355 0.0 3.0 0.00 0.14 0.01 97 1012.8
20260507114103 39 343 1.0 6.0 0.00 0.14 0.01 97 1012.9
20260507113603 39 5 1.0 6.0 0.00 0.14 0.01 97 1012.9
20260507112604 39 26 1.0 3.0 0.00 0.15 0.01 97 1012.7
20260507112104 39 358 2.0 5.0 0.00 0.15 0.01 97 1012.8
20260507111604 39 347 2.0 3.0 0.00 0.16 0.01 97 1012.6
20260507111105 39 23 1.0 3.0 0.00 0.16 0.01 98 1012.4
20260507110603 39 49 0.0 1.0 0.00 0.16 0.01 98 1012.4
20260507110104 39 75 0.0 2.0 0.00 0.16 0.01 98 1012.3
20260507105603 39 120 0.0 1.0 0.00 0.16 0.01 98 1012.2
20260507104604 38 120 0.0 1.0 0.00 0.17 0.01 98 1011.9
20260507104104 38 120 0.0 0.0 0.00 0.17 0.01 97 1012.0
20260507103603 38 120 0.0 0.0 0.00 0.17 0.01 97 1012.0
20260507103104 38 120 0.0 1.0 0.00 0.17 0.01 97 1011.9
20260507102604 38 121 0.0 1.0 0.00 0.17 0.01 97 1011.8
20260507102104 38 121 1.0 1.0 0.00 0.17 0.01 97 1011.6
20260507101603 38 121 0.0 1.0 0.00 0.18 0.01 97 1011.7
20260507101104 38 121 0.0 1.0 0.00 0.18 0.01 97 1011.8
20260507100604 39 121 1.0 2.0 0.00 0.18 0.01 97 1011.7
20260507094603 39 147 0.0 1.0 0.00 0.20 0.01 97 1012.0
20260507093604 39 147 0.0 0.0 0.00 0.20 0.01 97 1011.9
20260507093104 40 147 0.0 0.0 0.00 0.21 0.01 97 1011.9
20260507092604 40 147 0.0 0.0 0.00 0.21 0.01 97 1011.9